Temperature
17 16 15 14 13 12 11 11 10 9 8 7 7 6 6 6 5 4 4 3 2 2 1 0 -1 -1 -2 -3 -4 -4 -4 -5 -6 -7 -7 -6 -6 -7 -7 -8 -8 -8 -9
18 17 16 15 14 13 12 12 11 10 9 9 8 7 6 5 4 4 4 3 2 2 1 0 -1 -2 -2 -3 -4 -5 -5 -5 -6 -8 -9 -9 -9 -9 -8 -8 -8 -9 -9
19 19 18 16 16 15 14 14 13 12 11 9 8 6 5 5 4 4 4 3 3 2 1 0 -1 -2 -2 -3 -4 -5 -5 -6 -6 -8 -10 -11 -11 -11 -9 -9 -9 -9 -9
20 20 19 18 17 17 16 15 14 13 12 10 9 7 7 6 6 5 4 3 2 2 1 0 -1 -2 -2 -3 -4 -4 -5 -6 -7 -8 -9 -10 -11 -12 -12 -10 -10 -10 -10
21 21 20 20 19 18 17 16 15 14 13 12 10 9 7 7 5 4 3 3 2 2 1 0 -1 -2 -2 -3 -4 -4 -5 -6 -7 -8 -9 -9 -10 -11 -12 -12 -10 -10 -11
21 21 21 20 19 18 18 17 16 15 14 13 11 10 8 7 5 4 4 3 2 2 1 -0 -1 -2 -2 -3 -4 -4 -5 -6 -7 -8 -9 -9 -10 -10 -11 -12 -12 -11 -11
19 21 21 20 20 19 18 18 17 16 15 14 13 11 9 7 6 5 4 3 2 2 1 -0 -1 -2 -3 -3 -4 -5 -5 -6 -7 -8 -8 -9 -9 -10 -10 -11 -12 -12 -12
20 20 20 20 20 19 19 18 17 17 16 15 14 12 10 8 6 5 4 3 3 2 1 -0 -1 -2 -3 -3 -4 -5 -5 -6 -7 -8 -8 -9 -9 -9 -10 -10 -11 -12 -12
20 20 20 20 19 19 19 18 17 17 16 15 14 13 11 9 7 5 4 3 2 2 1 -0 -1 -2 -3 -3 -4 -4 -5 -6 -7 -8 -8 -9 -9 -9 -9 -10 -11 -12 -12
19 19 19 19 19 19 18 18 17 17 16 15 14 13 12 10 8 6 4 3 2 1 1 -0 -1 -2 -3 -3 -4 -4 -5 -6 -7 -8 -8 -8 -9 -9 -9 -10 -10 -11 -12
18 18 17 17 18 18 18 18 17 17 16 15 14 13 12 10 8 6 4 3 2 1 0 -0 -1 -2 -2 -3 -4 -4 -5 -6 -7 -7 -8 -8 -9 -9 -9 -10 -10 -11 -12
16 16 16 16 17 17 17 17 17 16 16 15 14 13 11 10 8 6 5 3 2 1 0 -0 -1 -2 -2 -3 -4 -4 -5 -6 -7 -7 -8 -8 -9 -9 -9 -10 -10 -11 -12
15 16 16 16 16 16 16 16 16 16 15 14 13 12 11 10 9 7 5 3 2 1 0 -1 -1 -2 -2 -3 -4 -4 -5 -6 -7 -7 -8 -8 -9 -9 -9 -10 -10 -11 -11
15 15 15 15 16 16 16 16 15 15 15 14 13 13 12 11 9 7 5 3 2 1 0 -1 -1 -2 -2 -3 -4 -4 -5 -6 -6 -7 -8 -9 -9 -9 -9 -10 -10 -10 -11
14 15 15 15 15 15 15 15 15 15 14 14 14 13 12 10 8 6 4 3 1 1 -0 -1 -1 -2 -2 -3 -4 -4 -5 -6 -6 -7 -8 -9 -9 -9 -9 -9 -9 -10 -10
14 14 14 14 14 15 14 14 14 14 14 14 14 13 11 10 8 6 4 2 1 0 -0 -1 -1 -2 -2 -3 -4 -5 -6 -6 -7 -8 -8 -9 -9 -9 -9 -10 -10 -10 -10
13 13 13 13 13 14 14 14 14 13 13 13 13 12 11 9 8 5 3 2 1 0 -1 -1 -2 -2 -3 -3 -4 -5 -6 -7 -8 -8 -8 -9 -9 -9 -9 -9 -9 -9 -9
12 12 12 12 12 13 13 12 12 12 12 12 12 12 10 9 6 3 2 1 0 -0 -1 -1 -2 -2 -3 -3 -4 -5 -6 -6 -7 -7 -8 -9 -9 -9 -9 -9 -9 -9 -9
11 11 11 11 11 12 11 11 11 11 11 11 11 10 9 7 5 3 2 1 -0 -0 -1 -1 -2 -2 -3 -4 -4 -5 -5 -6 -6 -7 -8 -9 -9 -9 -9 -9 -9 -9 -9
10 10 10 10 11 11 10 10 10 10 10 10 9 8 7 6 5 4 2 0 -1 -1 -1 -2 -2 -3 -3 -4 -4 -5 -5 -6 -6 -7 -8 -9 -9 -9 -9 -9 -9 -9 -9
10 9 9 9 10 9 9 9 9 9 8 8 8 7 7 5 4 2 1 -0 -1 -1 -2 -2 -2 -3 -3 -4 -4 -5 -5 -6 -7 -8 -8 -8 -9 -9 -9 -9 -9 -10 -9
9 8 8 8 9 9 8 8 8 8 7 7 7 7 6 4 3 1 -0 -1 -2 -2 -2 -2 -2 -3 -3 -4 -4 -5 -5 -7 -8 -8 -8 -9 -9 -9 -9 -10 -10 -10 -10
8 8 7 7 8 8 7 7 7 6 6 6 6 6 5 4 2 0 -1 -2 -2 -3 -2 -2 -2 -3 -3 -4 -4 -5 -5 -6 -8 -8 -8 -9 -9 -9 -9 -9 -10 -10 -10
7 7 7 6 7 7 6 6 6 5 5 6 5 5 4 2 1 -1 -2 -2 -2 -2 -2 -2 -2 -3 -3 -4 -4 -5 -5 -6 -7 -7 -8 -8 -9 -9 -9 -10 -10 -10 -10
6 6 5 5 5 5 5 5 4 4 4 5 5 4 3 1 -0 -1 -2 -2 -2 -1 -2 -2 -2 -3 -3 -3 -4 -5 -5 -6 -7 -8 -8 -8 -9 -9 -9 -9 -10 -10 -10
5 5 4 4 4 3 3 3 3 3 3 4 4 3 2 0 -1 -2 -3 -3 -3 -3 -3 -3 -3 -3 -3 -4 -4 -5 -6 -7 -8 -8 -8 -8 -9 -9 -9 -10 -10 -10 -10
Wind_Speed
15 11 14 14 13 15 17 18 18 15 12 7 7 6 6 6 8 15 19 20 20 19 17 12 12 11 7 6 6 4 5 4 3 4 6 8 8 8 6 9 10 13 15
10 12 13 15 18 19 19 19 20 19 17 13 8 5 4 5 8 13 17 20 20 20 16 15 12 11 7 6 6 5 3 4 2 2 4 5 4 4 7 6 7 9 12
16 13 15 17 18 20 23 21 22 20 19 14 8 4 3 3 5 7 9 17 20 20 18 16 15 12 9 6 7 6 6 4 3 4 3 3 5 7 5 7 7 7 6
14 13 14 15 21 23 19 20 20 20 19 17 16 14 12 11 11 8 9 13 19 19 19 17 16 13 11 7 7 7 6 5 5 4 5 6 6 5 7 5 5 8 9
14 15 17 19 19 17 17 18 17 19 19 20 21 19 16 11 6 6 9 9 13 17 18 17 16 13 11 10 9 6 7 6 6 5 5 6 6 8 8 13 13 9 7
11 13 12 12 13 12 14 15 18 19 19 21 20 21 19 13 10 10 10 10 7 9 15 16 15 14 12 11 10 9 8 7 8 7 6 6 6 6 8 10 16 17 11
9 10 11 12 13 14 16 16 19 20 20 21 22 22 19 17 18 15 14 12 9 9 11 14 13 13 14 14 13 8 8 8 9 9 8 8 9 9 10 12 16 18 16
9 10 10 11 12 13 14 16 19 20 19 21 22 19 17 14 13 14 12 13 12 11 11 15 14 15 15 14 12 8 8 7 9 11 9 9 10 9 11 12 14 18 19
11 11 10 10 11 12 15 17 18 18 19 20 19 18 18 17 15 14 13 11 10 10 13 13 12 13 14 13 10 8 9 8 9 10 11 10 10 10 10 12 12 14 19
11 11 10 10 10 11 12 13 17 18 17 17 18 17 17 18 15 13 15 14 13 11 11 12 11 10 11 11 9 9 9 9 10 9 10 11 10 10 11 12 12 13 16
13 12 11 9 8 9 10 13 15 15 15 17 17 17 17 16 15 15 16 15 14 14 13 12 12 11 11 10 9 10 9 10 11 11 11 14 12 11 11 12 13 13 14
13 12 11 9 7 8 8 10 12 14 15 14 15 16 15 16 17 18 17 15 15 14 14 12 12 12 11 10 10 11 11 11 12 12 12 14 12 13 13 12 14 14 14
13 11 10 9 7 7 7 9 11 13 11 12 14 16 17 18 20 19 17 16 16 14 13 13 13 12 11 10 11 11 11 11 12 13 13 14 14 15 13 14 14 13 14
12 10 10 9 8 7 7 9 11 11 12 13 16 19 21 21 20 18 17 17 16 15 14 14 13 12 10 10 10 10 11 12 13 14 14 15 15 15 15 15 15 15 15
12 11 10 9 8 7 7 9 11 11 13 15 18 21 18 17 17 17 16 15 15 15 13 13 12 11 9 9 10 10 12 13 13 14 14 15 17 20 18 15 13 13 13
12 12 11 11 10 9 9 9 11 12 13 17 19 17 15 16 17 16 15 15 15 13 13 13 12 11 10 15 19 15 12 13 13 13 12 12 15 19 24 27 26 23 17
12 12 12 12 12 11 10 10 11 10 13 16 16 15 15 16 16 16 15 16 15 13 13 13 12 12 14 18 19 20 13 10 10 10 10 11 11 17 11 20 26 24 27
12 13 12 12 12 11 10 9 8 9 12 14 15 14 14 15 13 13 15 14 12 13 13 13 13 12 13 18 19 19 12 8 8 9 10 11 11 13 15 15 16 14 14
13 13 12 13 12 13 11 9 9 9 11 15 15 13 13 13 14 15 16 14 13 13 13 11 13 12 13 17 18 17 7 8 9 9 10 11 11 19 24 18 14 11 11
12 11 11 11 12 13 9 8 10 10 13 14 13 11 13 15 17 17 15 12 12 13 13 12 12 12 11 15 16 16 7 8 9 8 9 15 15 21 24 15 11 12 13
13 12 11 11 12 11 8 10 11 13 13 10 9 10 12 14 14 13 12 11 12 12 12 12 11 11 12 14 16 16 7 8 9 8 6 7 17 21 22 19 10 16 17
11 11 10 12 13 11 9 11 14 13 11 9 9 10 11 12 12 11 12 12 13 12 12 10 9 9 10 13 14 16 15 12 8 7 6 8 18 20 20 16 17 23 18
11 10 10 13 14 11 9 12 14 12 11 9 10 9 10 11 11 12 13 12 12 11 11 10 9 8 8 10 16 16 15 14 8 6 11 14 17 17 12 15 19 16 9
11 10 11 14 16 14 12 12 14 12 11 11 9 7 8 9 10 11 12 12 13 13 12 11 10 8 7 7 7 6 7 10 8 7 9 12 13 11 12 12 11 8 9
10 10 12 14 16 15 15 14 12 11 11 10 8 7 8 9 10 12 12 13 13 15 14 12 11 10 9 11 15 10 7 6 7 5 2 2 4 5 6 7 8 7 8
12 12 13 14 16 15 16 15 12 10 10 9 7 6 7 8 9 9 10 19 18 21 22 17 13 10 11 12 15 15 13 11 9 4 2 3 4 6 7 8 9 9 9
Wind_Direction
238 210 205 202 198 198 200 201 201 196 184 180 184 187 205 202 201 205 204 202 202 201 200 205 213 215 214 221 222 234 262 262 250 271 281 269 254 247 250 259 273 281 285
233 210 201 199 202 204 204 204 205 199 196 197 184 176 173 190 202 202 203 204 202 201 203 206 209 213 214 218 221 215 239 261 264 272 306 314 293 251 250 248 262 271 279
233 217 205 205 205 208 207 207 206 202 199 190 171 149 136 142 176 198 203 203 201 201 202 204 209 212 210 217 220 212 218 244 254 210 234 292 298 310 259 236 254 259 265
230 220 208 208 210 213 207 207 203 202 198 188 191 189 196 201 199 192 193 194 198 200 204 208 209 212 214 215 222 220 211 221 250 237 221 223 238 287 303 280 252 253 270
224 223 216 215 215 210 204 205 202 203 198 196 199 201 208 205 176 175 183 191 196 201 204 207 209 212 216 219 221 221 219 218 231 233 230 239 244 237 263 293 297 285 259
237 234 227 216 214 202 200 199 201 206 200 200 203 206 208 194 180 186 190 195 196 201 205 207 209 214 217 220 223 223 224 228 232 239 234 235 242 247 250 273 290 294 288
260 246 232 220 216 204 202 200 202 208 203 203 207 210 209 199 199 195 196 193 196 203 206 206 208 213 220 224 225 223 228 229 233 238 243 243 246 251 256 268 282 288 290
279 263 247 232 223 211 203 201 206 210 204 205 210 210 206 204 207 201 195 197 201 204 196 202 208 214 219 225 224 226 231 230 235 245 243 248 253 252 253 260 275 287 291
298 281 266 242 227 216 209 206 208 211 208 208 208 208 206 207 206 199 197 198 198 196 196 199 205 213 219 223 222 230 234 235 239 246 248 250 257 255 254 256 257 269 287
303 290 275 255 234 220 210 203 208 212 211 207 207 210 209 209 205 197 198 199 198 194 190 197 204 210 217 221 221 232 236 238 245 247 250 253 257 258 259 258 258 256 264
295 289 282 270 246 222 207 206 209 211 211 209 208 211 208 206 204 204 204 201 197 195 198 199 204 211 217 217 223 233 235 241 251 252 252 257 258 261 263 262 261 259 259
292 292 290 284 261 234 217 213 213 215 216 209 208 212 209 204 207 210 206 199 198 197 198 198 204 212 217 216 222 235 242 242 251 256 256 260 263 262 264 265 264 263 261
305 308 307 299 278 249 226 220 219 221 214 206 209 212 213 210 212 211 205 199 197 196 196 197 205 211 215 218 224 232 241 244 249 254 256 260 262 265 265 264 265 265 264
310 315 317 313 297 265 236 227 228 219 211 208 213 217 217 216 215 211 204 200 196 195 196 199 205 210 213 220 227 232 240 247 252 253 255 257 258 262 265 265 262 262 262
326 327 322 318 310 286 253 235 232 220 211 213 219 224 222 218 215 210 204 198 195 196 194 196 204 210 214 219 224 233 241 246 253 255 253 255 261 265 273 277 271 263 263
325 322 320 317 310 293 269 246 237 223 211 219 226 226 220 217 214 210 202 197 194 191 188 195 201 210 221 235 244 245 239 242 250 258 258 258 269 278 284 288 290 288 283
315 312 310 303 297 289 272 257 246 224 216 225 230 226 219 218 215 208 201 198 193 188 190 196 201 214 227 239 251 260 261 253 252 255 263 271 271 285 281 285 288 287 285
311 307 302 299 296 290 283 270 254 230 227 233 234 227 219 219 213 206 205 199 192 191 195 199 205 215 229 239 250 261 265 259 253 252 256 263 268 274 282 277 279 272 269
293 290 290 291 292 293 291 281 265 245 238 241 239 228 215 213 208 207 205 198 190 192 196 198 203 213 228 237 248 260 256 259 258 256 258 263 265 282 292 296 294 286 281
298 298 301 301 300 300 303 288 276 261 252 249 243 227 214 212 211 209 204 196 193 195 194 201 205 211 220 231 242 254 249 259 266 265 261 275 284 293 300 303 300 298 296
306 309 311 309 305 308 310 290 283 273 268 259 243 225 214 214 213 207 198 189 191 191 194 202 205 209 219 230 240 249 239 247 264 271 268 269 293 300 305 312 307 299 308
309 314 315 312 310 311 305 292 287 283 277 259 241 226 214 208 206 199 194 188 188 190 195 199 207 214 221 227 235 243 248 253 253 265 270 278 297 306 313 315 307 311 322
307 310 310 310 311 309 300 293 294 294 286 268 248 230 211 202 196 194 193 190 190 194 197 197 207 213 210 220 230 237 246 257 260 262 280 294 306 315 315 308 312 321 318
307 310 314 313 311 311 305 292 293 294 285 272 256 227 208 201 196 196 196 196 197 198 198 197 204 206 204 204 210 220 242 253 265 277 285 298 309 312 308 311 315 312 304
302 306 306 304 304 307 305 301 297 296 286 274 257 228 211 201 200 203 206 206 209 204 199 198 195 193 205 211 204 199 213 218 234 248 239 281 304 308 310 309 309 310 313
302 304 302 301 303 305 303 302 300 294 284 278 257 229 212 204 202 206 216 223 218 222 218 207 196 200 201 203 204 211 224 238 250 250 240 281 293 300 307 312 314 316 315
Height
1513 1517 1519 1522 1523 1525 1526 1528 1530 1531 1534 1535 1535 1536 1536 1539 1539 1540 1540 1539 1538 1537 1535 1534 1532 1530 1528 1526 1524 1521 1519 1516 1512 1506 1500 1497 1494 1492 1489 1488 1486 1484 1481
1505 1508 1511 1513 1515 1516 1518 1520 1521 1523 1524 1526 1528 1529 1531 1531 1533 1533 1533 1532 1532 1531 1530 1528 1527 1525 1523 1521 1519 1516 1513 1511 1508 1503 1496 1490 1486 1483 1482 1481 1479 1477 1475
1497 1501 1503 1505 1507 1508 1509 1511 1513 1514 1516 1518 1520 1521 1522 1522 1523 1524 1525 1525 1525 1524 1523 1523 1521 1519 1517 1516 1514 1511 1508 1506 1504 1501 1498 1492 1484 1478 1473 1472 1471 1469 1467
1491 1493 1495 1497 1499 1500 1502 1504 1505 1506 1508 1509 1510 1510 1510 1511 1514 1517 1519 1518 1518 1517 1517 1516 1515 1513 1512 1510 1508 1506 1504 1501 1499 1497 1494 1492 1487 1481 1470 1465 1464 1462 1459
1485 1487 1488 1490 1492 1494 1495 1496 1497 1498 1499 1499 1500 1501 1501 1503 1507 1509 1510 1510 1510 1510 1510 1509 1508 1507 1506 1504 1502 1500 1498 1496 1493 1491 1489 1486 1483 1479 1473 1462 1455 1453 1451
1480 1481 1483 1484 1485 1487 1487 1488 1489 1489 1490 1490 1491 1491 1492 1494 1497 1499 1501 1502 1503 1503 1502 1502 1501 1500 1499 1498 1496 1494 1492 1490 1488 1485 1483 1480 1478 1474 1470 1461 1452 1445 1441
1476 1476 1477 1478 1479 1480 1480 1481 1481 1481 1481 1481 1481 1482 1483 1485 1488 1491 1493 1494 1494 1494 1495 1494 1494 1493 1492 1491 1490 1488 1486 1484 1481 1479 1477 1474 1471 1468 1464 1458 1448 1440 1433
1473 1473 1473 1474 1474 1474 1475 1475 1474 1474 1474 1473 1473 1474 1475 1476 1478 1481 1484 1485 1486 1487 1487 1487 1486 1486 1485 1484 1483 1481 1479 1477 1474 1472 1470 1467 1464 1461 1458 1453 1446 1435 1425
1471 1471 1470 1470 1469 1469 1468 1468 1468 1467 1467 1466 1466 1466 1466 1467 1469 1472 1474 1476 1477 1479 1479 1478 1478 1478 1478 1477 1475 1473 1472 1470 1467 1465 1462 1459 1457 1454 1450 1446 1441 1434 1422
1470 1468 1467 1465 1463 1462 1462 1461 1460 1460 1459 1459 1458 1457 1458 1458 1460 1462 1464 1466 1468 1469 1470 1470 1470 1470 1470 1469 1468 1466 1464 1462 1460 1457 1454 1452 1449 1445 1442 1437 1432 1427 1420
1465 1462 1460 1457 1455 1454 1453 1452 1452 1451 1451 1450 1449 1449 1448 1449 1450 1451 1453 1456 1458 1459 1460 1461 1462 1462 1462 1462 1461 1459 1457 1454 1452 1450 1447 1443 1441 1437 1433 1429 1424 1419 1413
1461 1457 1453 1450 1447 1446 1445 1445 1444 1444 1443 1442 1441 1440 1439 1439 1439 1440 1442 1445 1447 1449 1451 1452 1453 1454 1454 1454 1453 1451 1449 1447 1444 1441 1438 1435 1433 1429 1425 1420 1415 1410 1405
1455 1451 1448 1445 1443 1441 1440 1439 1438 1437 1436 1434 1432 1431 1429 1428 1428 1429 1431 1434 1436 1438 1441 1443 1444 1445 1446 1446 1445 1443 1441 1439 1436 1433 1430 1427 1425 1420 1417 1412 1407 1401 1397
1453 1449 1446 1443 1441 1438 1437 1435 1433 1431 1429 1427 1424 1421 1419 1417 1417 1418 1420 1423 1426 1428 1431 1433 1435 1437 1438 1438 1437 1435 1433 1431 1428 1425 1422 1420 1417 1412 1408 1403 1398 1393 1388
1451 1448 1445 1443 1440 1437 1434 1432 1429 1426 1422 1418 1415 1411 1409 1407 1407 1407 1409 1412 1415 1419 1423 1425 1427 1429 1429 1430 1429 1428 1425 1423 1420 1417 1414 1412 1409 1405 1401 1397 1391 1386 1380
1451 1448 1445 1441 1438 1434 1431 1427 1423 1419 1415 1410 1406 1403 1399 1397 1396 1396 1399 1402 1405 1409 1413 1417 1419 1421 1421 1422 1421 1419 1417 1415 1412 1409 1406 1404 1401 1398 1393 1389 1385 1381 1375
1451 1447 1443 1439 1434 1430 1426 1421 1417 1412 1407 1402 1398 1394 1390 1387 1386 1387 1388 1391 1396 1400 1404 1408 1410 1412 1414 1414 1413 1412 1410 1408 1405 1402 1399 1396 1393 1390 1385 1380 1375 1371 1367
1447 1442 1438 1433 1428 1424 1419 1414 1409 1404 1399 1394 1390 1386 1381 1378 1378 1378 1380 1383 1388 1392 1396 1399 1402 1404 1405 1406 1406 1405 1403 1400 1398 1395 1392 1389 1385 1382 1377 1372 1367 1362 1358
1442 1437 1432 1427 1421 1417 1411 1406 1401 1395 1390 1386 1381 1377 1373 1370 1369 1369 1370 1374 1378 1383 1387 1391 1394 1396 1397 1398 1398 1398 1395 1393 1390 1388 1385 1382 1378 1374 1371 1367 1361 1355 1350
1434 1429 1424 1419 1414 1409 1404 1398 1392 1387 1382 1377 1373 1369 1365 1362 1360 1360 1362 1365 1370 1374 1379 1383 1386 1388 1389 1391 1391 1390 1388 1386 1383 1381 1378 1376 1372 1369 1366 1362 1355 1349 1342
1428 1423 1417 1412 1408 1403 1397 1390 1385 1380 1374 1369 1364 1360 1356 1354 1352 1352 1353 1356 1361 1366 1370 1374 1377 1380 1382 1383 1383 1383 1382 1379 1377 1374 1371 1369 1366 1363 1360 1356 1350 1344 1338
1422 1417 1411 1406 1402 1396 1389 1382 1377 1372 1366 1360 1355 1351 1348 1346 1344 1344 1345 1348 1352 1357 1362 1366 1369 1371 1374 1375 1376 1376 1375 1374 1371 1368 1366 1363 1361 1358 1354 1350 1344 1340 1334
1416 1411 1405 1399 1394 1389 1383 1375 1369 1363 1357 1352 1347 1343 1339 1337 1336 1336 1337 1340 1343 1348 1352 1357 1360 1363 1366 1368 1369 1369 1368 1367 1366 1363 1361 1359 1356 1352 1348 1344 1340 1335 1328
1410 1404 1398 1391 1385 1381 1375 1368 1361 1355 1349 1344 1339 1335 1332 1329 1328 1328 1329 1331 1334 1338 1343 1348 1352 1356 1358 1360 1362 1362 1362 1361 1360 1358 1356 1354 1351 1348 1344 1340 1335 1330 1325
1403 1397 1391 1384 1377 1372 1366 1360 1354 1347 1341 1336 1332 1328 1324 1322 1321 1321 1322 1323 1326 1331 1336 1340 1345 1348 1351 1354 1355 1356 1356 1355 1354 1352 1350 1349 1346 1343 1340 1336 1331 1326 1321
1396 1390 1383 1377 1370 1364 1358 1352 1347 1341 1335 1329 1325 1321 1318 1316 1314 1315 1315 1317 1320 1325 1330 1335 1339 1342 1345 1347 1349 1350 1350 1350 1349 1348 1346 1344 1342 1339 1335 1331 1327 1323 1318